User: anonymous   Login
Location: Oshawa
(43.9000°N, 78.8670°W)
Time: 20:36:45
(UTC-05:00)
Language:

PAYLOAD A - Orbit

View from above orbital plane
View from above orbital plane
View from above satellite
View from above satellite

Ground track
Ground track

The orbit data is extracted from the following two-line orbital elements,

1 27840U 03031A   17020.95132367 -.00000021 +00000-0 +70517-5 0  9993
2 27840 098.2001 024.8450 0097788 202.2512 157.4420 14.38873012712043
Epoch (UTC): 20 January 2017 22:49:54
Eccentricity: 0.0097788
inclination: 98.2001°
perigee height: 692 km
apogee height: 832 km
right ascension of ascending node: 24.8450°
argument of perigee: 202.2512°
revolutions per day: 14.38873012
mean anomaly at epoch: 157.4420°
orbit number at epoch: 71204

The dashed part of the orbit path shows where the satellite is in the earth's shadow,  

DLR